Imperial, CA

7:01 PM PST on February 26, 2017 (GMT -0800)
Imperial County

Weather History for KIPL - March, 2012

Change the Weather History Date:

Saturday, March 3, 2012

  Actual Average Record
Temperature  
Mean Temperature 55 °F -  
Max Temperature 73 °F 74 °F 90 °F (1959)
Min Temperature 37 °F 47 °F 30 °F (2002)
Degree Days  
Heating Degree Days 10    
Growing Degree Days 5 (Base 50)    
Moisture  
Dew Point 15 °F    
Average Humidity 25    
Maximum Humidity 47    
Minimum Humidity 6    
Precipitation  
Precipitation 0.00 in - - ()
Sea Level Pressure  
Sea Level Pressure 30.28 in    
Wind  
Wind Speed 6 mph (West)    
Max Wind Speed 8 mph    
Max Gust Speed -    
Visibility 10 miles    
Events      
Averages and records for this station are not official NWS values.
T = Trace of Precipitation, MM = Missing Value Source: NWS Daily Summary

Daily Weather History Graph

Daily Weather History Graph

Search for Another Location

Airport or City:

Trip Planner

Search our weather history database for the weather conditions in past years. The results will help you decide how hot, cold, wet, or windy it might be!

Date:

Astronomy

Mar. 03, 2012 Rise Set
Actual Time 6:07 AM PST 5:41 PM PST
Civil Twilight 5:42 AM PST 6:06 PM PST
Nautical Twilight 5:13 AM PST 6:34 PM PST
Astronomical Twilight 4:45 AM PST 7:03 PM PST
Moon 1:08 PM PST (3/3) 2:34 AM PST (3/3)
Length of Visible Light 12h 23m
Length of Day
11h 34m
Waxing Gibbous, 76% of the Moon is Illuminated
Mar 3
Waxing Gibbous
Mar 8
Full
Mar 14
Last Quarter
Mar 22
New
Mar 30
First Quarter

Hourly Weather History & Observations

Time (PST) Temp. Windchill Dew Point Humidity Pressure Visibility Wind Dir Wind Speed Gust Speed Precip Events Conditions
12:53 AM 42.1 °F 37.1 °F 19.9 °F 41% 30.31 in 10.0 mi WSW 8.1 mph - N/A   Clear
1:53 AM 41.0 °F 38.0 °F 19.0 °F 41% 30.30 in 10.0 mi West 4.6 mph - N/A   Clear
2:53 AM 39.0 °F 33.4 °F 19.0 °F 45% 30.29 in 10.0 mi West 8.1 mph - N/A   Clear
3:53 AM 37.9 °F 32.1 °F 18.0 °F 45% 30.30 in 10.0 mi West 8.1 mph - N/A   Clear
4:53 AM 37.9 °F 32.1 °F 19.0 °F 47% 30.31 in 10.0 mi West 8.1 mph - N/A   Clear
5:53 AM 39.0 °F 34.0 °F 17.1 °F 41% 30.32 in 10.0 mi West 6.9 mph - N/A   Clear
6:53 AM 41.0 °F 35.8 °F 18.0 °F 40% 30.34 in 10.0 mi West 8.1 mph - N/A   Clear
7:53 AM 50.0 °F - 19.9 °F 31% 30.36 in 10.0 mi West 5.8 mph - N/A   Clear
8:53 AM 57.9 °F - 21.0 °F 24% 30.37 in 10.0 mi Calm Calm - N/A   Clear
9:53 AM 64.9 °F - 8.1 °F 11% 30.36 in 10.0 mi Calm Calm - N/A   Clear
10:53 AM 69.1 °F - -0.9 °F 6% 30.35 in 10.0 mi NE 4.6 mph - N/A   Clear
11:53 AM 70.0 °F - 6.1 °F 8% 30.32 in 10.0 mi West 4.6 mph - N/A   Clear
12:53 PM 73.0 °F - 3.0 °F 6% 30.29 in 10.0 mi Variable 4.6 mph - N/A   Clear
1:53 PM 72.0 °F - 8.1 °F 8% 30.27 in 10.0 mi NNW 6.9 mph - N/A   Clear
2:53 PM 73.0 °F - 8.1 °F 8% 30.25 in 10.0 mi WNW 4.6 mph - N/A   Clear
3:53 PM 73.0 °F - 12.0 °F 10% 30.23 in 10.0 mi WNW 5.8 mph - N/A   Clear
4:53 PM 72.0 °F - 16.0 °F 12% 30.22 in 10.0 mi West 4.6 mph - N/A   Clear
5:53 PM 64.9 °F - 19.9 °F 18% 30.22 in 10.0 mi WSW 5.8 mph - N/A   Clear
6:53 PM 59.0 °F - 24.1 °F 26% 30.22 in 10.0 mi SW 3.5 mph - N/A   Clear
7:53 PM 57.9 °F - 19.0 °F 22% 30.22 in 10.0 mi SW 3.5 mph - N/A   Clear
8:53 PM 54.0 °F - 23.0 °F 30% 30.23 in 10.0 mi West 5.8 mph - N/A   Clear
9:53 PM 54.0 °F - 15.1 °F 22% 30.23 in 10.0 mi SW 4.6 mph - N/A   Clear
10:53 PM 53.1 °F - 14.0 °F 21% 30.22 in 10.0 mi WSW 8.1 mph - N/A   Clear
11:53 PM 50.0 °F - 17.1 °F 27% 30.21 in 10.0 mi West 5.8 mph - N/A   Clear